    Orbital elements:
    2020 DA4                                                 Earth MOID = 0.0053 AU
    Epoch 2022 Jan. 21.0 TT = JDT 2459600.5                 Veres                   
    M 314.48159              (2000.0)            P               Q                  
    n   0.47950413     Peri.   19.82467     -0.90835426     +0.41819954             
    a   1.6166195      Node   184.89688     -0.38570967     -0.83897286             
    e   0.4312717      Incl.    0.86913     -0.16161863     -0.34818627             
    P   2.06           H   25.61          G   0.15           U   0                  
    Residuals in seconds of arc
    200227 G96  0.0   0.1+    200228 I52  0.2-  0.1+    200302 474  0.4-  0.2-
    200227 G96  0.1+  0.1+    200228 I52  0.1-  0.2+    200302 474  0.2-  0.2-
    200227 G96  0.0   0.1+    200228 I52 (1.4-  0.8-)   200302 474  0.1+  0.6-
    200227 G96  0.0   0.1+    200228 H36  0.2+  0.3-    200302 474  0.2+  0.0
    200227 711  0.5-  0.6-    200228 H36  0.1-  0.4-    200303 474  0.4+  0.0
    200227 711  0.6-  0.2-    200228 H36  0.0   0.2+    200303 474  0.0   0.0
    200227 711  0.6-  0.5-    200228 H36  0.2+  0.1+    200303 474  0.2-  0.3+
    200227 673  0.0   0.2+    200228 734  0.0   0.1-    200303 474  0.2+  0.1+
    200227 673  0.0   0.0     200228 734  0.1+  0.2-    200304 474  1.6-  0.3+
    200227 I52  0.5-  0.1+    200228 734  0.0   0.8-    200304 474  0.4+  0.3-
    200227 I52  0.0   0.1+    200228 734  0.0   0.4-    200304 474  1.2+  0.0
    200227 I52  0.0   0.1-    200228 658  0.5-  0.6-    200304 474  0.4-  1.2+
    200227 I52  0.2-  0.1-    200228 658  0.5-  0.9-    200304 474  1.4+  0.5+
    200227 E23  0.8-  0.9+    200228 658  0.4-  0.7-    200304 474  0.3-  0.9+
    200227 E23  0.1-  0.1+    200228 658  0.2-  0.6-    200304 474  0.2-  0.7+
    200227 E23  0.1-  0.1+    200228 658  0.3-  0.6-    200304 474  0.4+  0.2-
    200227 L04  0.0   0.1-    200228 L34  0.3+  0.3-    220603 G96 (0.0   1.0-)
    200227 L04  0.0   0.7-    200228 L34  0.2+  0.7+    220603 G96  0.1-  0.4-
    200227 L04  0.0   0.5-    200228 L34  0.4+  0.5+    220603 G96  0.6+  1.2+
    200227 Z84  0.1-  0.2+    200228 L34  0.2-  0.2+    220603 G96 (0.2-  1.9+)
    200227 Z84  0.4-  0.2+    200228 C43  0.3+  0.3+    220603 I52  0.2+  0.1+
    200227 J04  0.1-  0.4+    200228 C43  0.3+  0.0     220603 I52  0.1+  0.1+
    200227 J04  0.3+  0.4-    200228 C43  0.0   0.1-    220603 I52  0.1+  0.1+
    200227 J04  0.4-  0.0     200228 C43  0.1+  0.3+    220603 I52  0.1+  0.0
    200227 Z84  0.1-  0.5+    200228 C43  0.1+  0.3-    220603 I52  0.1+  0.1+
    200227 J95  0.2-  0.2+    200228 K96  0.3-  0.6-    220603 I52  0.0   0.1+
    200227 J95  0.3-  0.3-    200228 K96  0.2+  0.4-    220603 I52  0.0   0.2+
    200227 J95  0.2-  0.1-    200228 K96  0.2+  0.1+    220603 P93  0.1-  0.6-
    200227 I93  0.1-  0.0     200228 159  0.2+  0.1+    220603 P93  0.1-  0.6-
    200227 I93  0.1+  0.2-    200228 595  0.1+  0.1-    220603 P93  0.2-  0.9-
    200227 I93  0.1+  0.0     200228 159  0.1+  0.4-    220603 P93  0.8+  0.0
    200227 Z80  0.8+  0.1-    200228 595  0.2+  0.0     220603 900  0.4+  0.7-
    200227 Z99  0.5-  0.3-    200228 159  0.5-  0.2+    220603 900  0.0   0.6+
    200227 Z80  0.4+  0.1+    200228 K63  0.2+  0.1-    220603 900  0.1-  1.3-
    200227 Z99  0.5-  0.2+    200228 595  0.1-  0.4+    220603 K96  0.2+  0.1-
    200227 Z99  0.1+  0.0     200228 K63  0.1-  0.6+    220603 K96  0.8-  0.0
    200227 J69  0.2+  0.0     200228 L01  0.2-  0.2+    220603 K96  0.0   0.9-
    200227 Z80  0.1+  0.3+    200228 L01  0.0   0.2-    220603 203  0.4+  0.4-
    200227 J69  0.0   0.3-    200228 K63  0.2-  0.1+    220603 203  0.2+  0.0
    200227 J69  0.3-  0.7+    200228 L01  0.2-  0.1+    220603 203  0.2-  0.2+
    200227 X31  0.1+  0.1-    200228 L01  0.4-  0.4+    220603 203  0.1-  0.2+
    200227 X31  0.2-  0.5+    200228 160  0.4+  0.7+    220603 204  0.3+  0.2+
    200227 X31  0.7-  0.3-    200228 160  0.9-  0.3+    220604 204 (0.6+  0.9+)
    200228 204  0.1+  0.6-    200228 160  0.0   0.3+    220604 H36  0.2+  0.1+
    200228 204  0.2-  0.1-    200228 203  0.1-  0.1-    220604 H36  0.1-  0.2-
    200228 W34  1.0+  0.5-    200228 160  0.3-  0.4+    220604 H36  0.1-  0.4+
    200228 W34  0.0   0.4-    200228 958  0.9+  0.1-    220604 H21  0.0   0.2-
    200228 W34  0.2-  0.6-    200228 160  0.8+  0.9+    220604 H21  0.1+  0.3-
    200228 W34  0.2+  0.0     200228 J04  0.0   0.0     220604 H21  0.2-  0.3-
    200228 W34  0.3-  0.6-    200228 J04  0.2+  0.1-    220604 H21  0.3-  0.3-
    200228 C95  0.1-  1.1-    200228 J04  0.1-  0.2+    220604 I52  0.0   0.0
    200228 C95  0.7-  1.0-    200228 203  0.1+  0.0     220604 I52  0.0   0.0
    200228 W34  0.5+  0.6-    200228 958  0.0   0.3-    220604 I52  0.1+  0.0
    200228 807  0.0   0.1+    200228 203  0.0   0.1-    220604 I52  0.0   0.1+
    200228 807  0.1+  0.1+    200228 958  0.3+  0.2-    220604 654 (1.9+  0.2-)
    200228 W34  0.3+  0.4-    200302 474  0.5-  0.2+    220604 654  0.0   0.2-
    200228 807  0.1-  0.2-    200302 474  0.1-  0.2+    220604 654  0.6-  0.0
    200228 I52  0.5+  0.2+    200302 474  0.3-  0.7+    220604 654  0.2-  0.1+
    
    Ephemeris:
    2020 DA4                 a,e,i = 1.62, 0.43, 1                   q = 0.9194
    Date    TT    R. A. (2000) Decl.     Delta      r    Elong.  Phase     V
    2022 05 05    06 31 00.3 +26 04 36   0.1498  0.9256    52.8   119.8    26.1
    ...
    2022 05 20    06 48 01.2 +32 20 29   0.06968 0.9615    42.4   134.8    26.0
    ...
    2022 05 28    07 08 52.5 +48 40 32   0.02978 0.9919    43.5   135.3    24.2
    ...
    2022 06 03    17 46 46.7 +48 20 33   0.01492 1.0190   108.0    71.2    19.0
    2022 06 04    18 04 50.0 +32 13 54   0.01735 1.0238   122.3    56.9    18.9
    2022 06 05    18 13 59.7 +20 40 25   0.02083 1.0287   132.3    46.8    19.0
    ...
    2022 06 11    18 30 09.2 -04 58 52   0.04887 1.0596   154.5    24.4    20.3
    ...
    2022 06 19    18 33 35.5 -12 57 38   0.09106 1.1043   165.1    13.7    21.4
    ...
    2022 07 04    18 33 14.0 -17 42 26   0.1797  1.1954   173.3     5.7    22.7
    
    A. U. Tomatic                (C) Copyright 2022 MPC           M.P.E.C. 2022-L28
    


    Read MPEC 2022-L27 Read MPEC 2022-L29


    MPEC number:

    Enter an MPEC number in one of the following forms:

    • 1997-B01 (the full form)
    • J97B01 (the packed version of the full form)
    • B01 (the abbreviated form)